| time (UTC) | temp F | wind direction | speed MPH | gust MPH | rain 1hr in | rain 24hr in | rain mn in | humidity % | barometer mb |
| 20260503001504 | 58 | 222 | 5.0 | 7.0 | 0.00 | 0.00 | 0.00 | 62 | 1008.9 |
| 20260503000004 | 59 | 209 | 5.0 | 7.0 | 0.00 | 0.00 | 0.00 | 61 | 1009.0 |
| 20260502234503 | 58 | 215 | 3.0 | 8.0 | 0.00 | 0.00 | 0.00 | 62 | 1009.0 |
| 20260502233004 | 58 | 208 | 5.0 | 8.0 | 0.00 | 0.00 | 0.00 | 61 | 1009.2 |
| 20260502230004 | 59 | 211 | 4.0 | 7.0 | 0.00 | 0.00 | 0.00 | 61 | 1009.4 |
| 20260502224503 | 59 | 209 | 5.0 | 8.0 | 0.00 | 0.00 | 0.00 | 60 | 1009.6 |
| 20260502221504 | 59 | 216 | 5.0 | 9.0 | 0.00 | 0.00 | 0.00 | 60 | 1009.6 |
| 20260502220004 | 58 | 214 | 5.0 | 7.0 | 0.00 | 0.00 | 0.00 | 62 | 1009.7 |
| 20260502214504 | 58 | 209 | 6.0 | 9.0 | 0.00 | 0.00 | 0.00 | 61 | 1010.3 |
| 20260502213004 | 59 | 216 | 5.0 | 8.0 | 0.00 | 0.00 | 0.00 | 60 | 1010.3 |
| 20260502211503 | 58 | 217 | 5.0 | 9.0 | 0.00 | 0.00 | 0.00 | 61 | 1010.3 |
| 20260502210004 | 58 | 224 | 4.0 | 7.0 | 0.00 | 0.00 | 0.00 | 61 | 1010.3 |
| 20260502201504 | 60 | 219 | 6.0 | 9.0 | 0.00 | 0.00 | 0.00 | 57 | 1010.4 |
| 20260502200003 | 62 | 231 | 2.0 | 8.0 | 0.00 | 0.00 | 0.00 | 54 | 1010.4 |
| 20260502193004 | 65 | 210 | 5.0 | 10.0 | 0.00 | 0.00 | 0.00 | 49 | 1010.0 |
| 20260502191504 | 66 | 188 | 6.0 | 12.0 | 0.00 | 0.00 | 0.00 | 48 | 1010.0 |
| 20260502183004 | 69 | 199 | 6.0 | 15.0 | 0.00 | 0.00 | 0.00 | 44 | 1009.6 |
| 20260502181504 | 70 | 197 | 8.0 | 18.0 | 0.00 | 0.00 | 0.00 | 42 | 1009.6 |
| 20260502161503 | 75 | 195 | 12.0 | 22.0 | 0.00 | 0.00 | 0.00 | 37 | 1009.9 |
| 20260502151504 | 77 | 214 | 10.0 | 21.0 | 0.00 | 0.00 | 0.00 | 36 | 1010.7 |
| 20260502123004 | 78 | 224 | 11.0 | 21.0 | 0.00 | 0.00 | 0.00 | 32 | 1012.8 |
| 20260502121504 | 78 | 190 | 9.0 | 23.0 | 0.00 | 0.00 | 0.00 | 32 | 1013.0 |
| 20260502114504 | 78 | 200 | 13.0 | 22.0 | 0.00 | 0.00 | 0.00 | 31 | 1013.4 |
| 20260502113003 | 78 | 237 | 10.0 | 21.0 | 0.00 | 0.00 | 0.00 | 32 | 1013.8 |
| 20260502111504 | 77 | 223 | 10.0 | 23.0 | 0.00 | 0.00 | 0.00 | 32 | 1014.2 |
| 20260502104503 | 77 | 233 | 8.0 | 20.0 | 0.00 | 0.00 | 0.00 | 33 | 1014.6 |
| 20260502103004 | 77 | 246 | 12.0 | 22.0 | 0.00 | 0.00 | 0.00 | 33 | 1015.2 |
| 20260502101503 | 76 | 189 | 9.0 | 25.0 | 0.00 | 0.00 | 0.00 | 34 | 1015.2 |
| 20260502091503 | 74 | 240 | 8.0 | 13.0 | 0.00 | 0.00 | 0.00 | 38 | 1016.0 |
| 20260502071503 | 67 | 252 | 7.0 | 14.0 | 0.00 | 0.00 | 0.00 | 44 | 1017.5 |
| 20260502070003 | 66 | 216 | 6.0 | 12.0 | 0.00 | 0.00 | 0.00 | 47 | 1017.7 |
| 20260502064504 | 65 | 253 | 7.0 | 13.0 | 0.00 | 0.00 | 0.00 | 47 | 1017.7 |
| 20260502063004 | 64 | 253 | 9.0 | 14.0 | 0.00 | 0.00 | 0.00 | 50 | 1018.0 |
| 20260502060004 | 61 | 243 | 3.0 | 10.0 | 0.00 | 0.00 | 0.00 | 56 | 1018.1 |
| 20260502054504 | 60 | 239 | 3.0 | 10.0 | 0.00 | 0.00 | 0.00 | 59 | 1018.2 |
| 20260502053003 | 58 | 232 | 5.0 | 9.0 | 0.00 | 0.00 | 0.00 | 61 | 1018.3 |
| 20260502051504 | 56 | 247 | 6.0 | 10.0 | 0.00 | 0.00 | 0.00 | 65 | 1018.4 |
| 20260502050004 | 54 | 232 | 6.0 | 9.0 | 0.00 | 0.00 | 0.00 | 69 | 1018.5 |
| 20260502044504 | 51 | 238 | 6.0 | 9.0 | 0.00 | 0.00 | 0.00 | 72 | 1018.5 |
| 20260502043004 | 49 | 240 | 5.0 | 8.0 | 0.00 | 0.00 | 0.00 | 76 | 1018.5 |
| 20260502040003 | 44 | 246 | 3.0 | 7.0 | 0.00 | 0.00 | 0.00 | 80 | 1018.5 |
| 20260502034505 | 45 | 245 | 5.0 | 9.0 | 0.00 | 0.00 | 0.00 | 79 | 1018.7 |
| 20260502031504 | 39 | 237 | 8.0 | 10.0 | 0.00 | 0.00 | 0.00 | 89 | 1018.5 |
| 20260502030004 | 39 | 245 | 6.0 | 7.0 | 0.00 | 0.00 | 0.00 | 87 | 1018.6 |
| 20260502024503 | 39 | 252 | 4.0 | 6.0 | 0.00 | 0.00 | 0.00 | 86 | 1018.6 |
| 20260502023003 | 40 | 252 | 2.0 | 3.0 | 0.00 | 0.00 | 0.00 | 85 | 1018.9 |
| 20260502021504 | 40 | 252 | 2.0 | 3.0 | 0.00 | 0.00 | 0.00 | 85 | 1018.9 |
| 20260502020004 | 41 | 254 | 3.0 | 5.0 | 0.00 | 0.00 | 0.00 | 83 | 1019.4 |
| 20260502014504 | 42 | 255 | 2.0 | 3.0 | 0.00 | 0.00 | 0.00 | 82 | 1019.4 |
| 20260502011504 | 44 | 257 | 2.0 | 6.0 | 0.00 | 0.00 | 0.00 | 77 | 1019.4 |
| 20260502010004 | 45 | 259 | 3.0 | 3.0 | 0.00 | 0.00 | 0.00 | 74 | 1019.6 |
| 20260502004504 | 47 | 261 | 3.0 | 5.0 | 0.00 | 0.00 | 0.00 | 71 | 1019.6 |